London-Corbin, KY

9:11 PM EST on December 06, 2019 (GMT -0500)
London-Corbin / McKee

Weather History for KLOZ - August, 2019

Change the Weather History Date:

Sunday, August 18, 2019

  Actual Average Record
Temperature  
Mean Temperature 80 °F 75 °F  
Max Temperature 94 °F 86 °F 98 °F (1988)
Min Temperature 66 °F 65 °F 54 °F (1976)
Degree Days  
Heating Degree Days 0 0  
Month to date heating degree days 0 0  
Since 1 June heating degree days 10 9  
Since 1 July heating degree days 0 0  
Cooling Degree Days 15 10  
Month to date cooling degree days 213 195  
Year to date cooling degree days 986 902  
Since 1 June cooling degree days 808 788  
Growing Degree Days 30 (Base 50)    
Moisture  
Dew Point 65 °F    
Average Humidity 63    
Maximum Humidity 93    
Minimum Humidity 32    
Precipitation  
Precipitation 0.00 in 0.12 in 3.29 in (2010)
Sea Level Pressure  
Sea Level Pressure 29.98 in    
Wind  
Wind Speed 3 mph (SSW)    
Max Wind Speed 12 mph    
Max Gust Speed 17 mph    
Visibility 10 miles    
Events      
T = Trace of Precipitation, MM = Missing Value Source: NWS Daily Summary

Daily Weather History Graph

Daily Weather History Graph

Search for Another Location

Airport or City:

Astronomy

Aug. 18, 2019 Rise Set
Actual Time 6:55 AM EDT 8:24 PM EDT
Civil Twilight 6:27 AM EDT 8:51 PM EDT
Nautical Twilight 5:54 AM EDT 9:24 PM EDT
Astronomical Twilight 5:20 AM EDT 9:59 PM EDT
Moon 10:22 PM EDT (8/18) 9:36 AM EDT (8/18)
Length of Visible Light 14h 24m
Length of Day
13h 29m
Waning Gibbous, 91% of the Moon is Illuminated
Aug 18
Waning Gibbous
Aug 23
Last Quarter
Aug 30
New
Sep 5
First Quarter
Sep 14
Full

Hourly Weather History & Observations

Time (EDT) Temp. Heat Index Dew Point Humidity Pressure Visibility Wind Dir Wind Speed Gust Speed Precip Events Conditions
12:53 AM 72.0 °F - 68.0 °F 87% 29.99 in 10.0 mi Calm Calm - N/A   Clear
1:53 AM 69.1 °F - 66.9 °F 93% 29.98 in 6.0 mi Calm Calm - N/A   Clear
2:53 AM 69.1 °F - 66.9 °F 93% 29.96 in 9.0 mi Calm Calm - N/A   Clear
3:53 AM 68.0 °F - 66.0 °F 93% 29.96 in 8.0 mi Calm Calm - N/A   Clear
4:53 AM 68.0 °F - 66.0 °F 93% 29.97 in 9.0 mi Calm Calm - N/A   Clear
5:53 AM 66.9 °F - 64.9 °F 93% 29.98 in 10.0 mi Calm Calm - N/A   Clear
6:53 AM 66.9 °F - 64.9 °F 93% 29.98 in 8.0 mi Calm Calm - N/A   Clear
7:53 AM 68.0 °F - 66.0 °F 93% 30.00 in 9.0 mi SE 3.5 mph - N/A   Clear
8:53 AM 73.0 °F - 68.0 °F 84% 30.01 in 10.0 mi Calm Calm - N/A   Clear
9:53 AM 78.1 °F - 68.0 °F 71% 30.02 in 10.0 mi SSE 4.6 mph - N/A   Clear
10:53 AM 82.0 °F 84.9 °F 68.0 °F 62% 30.03 in 10.0 mi Variable 4.6 mph - N/A   Clear
11:53 AM 86.0 °F 88.2 °F 66.0 °F 51% 30.03 in 10.0 mi SSW 8.1 mph - N/A   Clear
12:53 PM 90.0 °F 91.3 °F 64.0 °F 42% 30.02 in 10.0 mi SSW 10.4 mph - N/A   Clear
1:53 PM 90.0 °F 90.6 °F 63.0 °F 40% 30.01 in 10.0 mi Variable 3.5 mph - N/A   Clear
2:53 PM 93.0 °F 92.7 °F 60.1 °F 33% 29.99 in 10.0 mi West 11.5 mph - N/A   Clear
4:53 PM 93.9 °F 94.0 °F 61.0 °F 33% 29.95 in 10.0 mi Variable 6.9 mph - N/A   Scattered Clouds
5:53 PM 93.0 °F 92.3 °F 59.0 °F 32% 29.95 in 10.0 mi Calm Calm - N/A   Partly Cloudy
6:53 PM 91.9 °F 91.8 °F 61.0 °F 35% 29.94 in 10.0 mi WSW 6.9 mph - N/A   Clear
7:53 PM 87.1 °F 88.3 °F 64.0 °F 46% 29.96 in 10.0 mi SSW 3.5 mph - N/A   Clear
8:53 PM 82.0 °F 84.5 °F 66.9 °F 60% 29.95 in 10.0 mi Calm Calm - N/A   Clear
9:53 PM 78.1 °F - 68.0 °F 71% 29.97 in 10.0 mi Calm Calm - N/A   Clear
10:53 PM 75.9 °F - 68.0 °F 76% 29.98 in 10.0 mi Calm Calm - N/A   Clear
11:53 PM 73.9 °F - 69.1 °F 85% 29.98 in 10.0 mi Calm Calm - N/A   Clear